Location: Alsip
(41.6689°N, 87.7387°W)
Time: 14:18:39
(UTC+00:00)

Cosmos 2369 - Pass Details

Date: 14 July 2020
Orbit: 839 x 857 km, 71.0° (Epoch: 04 August)

Event Time Altitude Azimuth Distance (km) Brightness Sun altitude
Rises 08:28:59 0° 332° (NNW) 3,434 7.2 -17.6°
Reaches altitude 10° 08:31:28 10° 329° (NNW) 2,495 6.4 -17.3°
Maximum altitude 08:37:06 59° 251° (WSW) 985 3.8 -16.7°
Enters shadow 08:42:05 13° 174° (S) 2,261 5.5 -16.1°
